Notices

Please take our survey and provide feedback: https://eccc.sondage-survey.ca/f/LanguageSelection.aspx?s=442ca660-fcf1-47c0-95a9-59707d6fd709

Please note that for the Engineering Climate Datasets, IDF dataset is available through this link.  Intensity-Duration-Frequency (IDF) Files: Includes the latest version of short-duration rainfall Intensity-Duration-Frequency (IDF) statistics in the form of tables and graphs with accompanying documentation for various locations across Canada.  Current IDF files can be accessed through our station finder application or downloaded for each province and territory across Canada.  In addition, historical versions of IDF files are also available for download.  Updates of IDF files are provided approximately every two years depending on the availability of data.   Thank you for your patience as we enhance our systems.

Hourly Data Report for December 01, 2020

KAMLOOPS A
BRITISH COLUMBIA
Current Station Operator: NAVCAN

50°42'09.000" N
120°26'55.000" W
345.30 m
1163781
71887
YKA

Download Data

Hourly Data (December 2020)
Hourly Data Report for December 1, 2020
TIME
LST
Temp Definition
°C
Dew Point Definition
°C
Rel Hum Definition
%
Precip. Amount Definition
mm

Wind Dir Definition
10's deg

Wind Spd Definition
km/h
Visibility Definition
km
Stn Press Definition
kPa
Hmdx Definition


Wind Chill Definition


Weather Definition


00:00 -0.1 -7.6 57 LegendMM 34 11 64.4 98.92   -4 LegendNANA
01:00 -0.4 -6.5 64 LegendMM 34 7 64.4 99.03   -3 Mainly Clear
02:00 -1.5 -6.2 71 LegendMM 25 13 64.4 99.12   -6 LegendNANA
03:00 0.3 -5.5 65 LegendMM 25 17 64.4 99.27     LegendNANA
04:00 0.2 -5.7 65 LegendMM 26 16 64.4 99.31     Mainly Clear
05:00 -1.7 -6.2 72 LegendMM 9 4 64.4 99.39   -3 LegendNANA
06:00 -2.9 -6.0 79 LegendMM 36 2 64.4 99.43   -4 LegendNANA
07:00 -3.5 -6.5 80 LegendMM 10 4 64.4 99.50   -5 Clear
08:00 -4.4 -6.6 84 LegendMM 9 5 64.4 99.58   -7 LegendNANA
09:00 -1.4 -4.3 80 LegendMM 36 1 64.4 99.64   -2 LegendNANA
10:00 0.7 -5.0 66 LegendMM 9 7 64.4 99.70     Mainly Clear
11:00 1.1 -5.9 60 LegendMM 11 10 64.4 99.68     LegendNANA
12:00 1.9 -6.0 56 LegendMM 13 7 64.4 99.63     LegendNANA
13:00 2.8 -6.2 52 LegendMM 11 8 64.4 99.58     Clear
14:00 3.5 -5.2 53 LegendMM 13 8 LegendMM 99.54     LegendNANA
15:00 3.4 -5.5 52 LegendMM 9 8 64.4 99.54     LegendNANA
16:00 1.7 -5.2 60 LegendMM 12 8 64.4 99.53     Clear
17:00 1.1 -6.2 58 LegendMM 12 3 LegendMM 99.60     LegendNANA
18:00 -1.5 -5.5 74 LegendMM 11 7 64.4 99.63   -4 LegendNANA
19:00 -2.4 -5.4 80 LegendMM 10 9 64.4 99.65   -6 Mainly Clear
20:00 -1.9 -4.8 81 LegendMM 10 14 64.4 99.67   -7 LegendNANA
21:00 -2.0 -5.0 80 LegendMM 11 10 64.4 99.68   -6 LegendNANA
22:00 -2.9 -5.8 80 LegendMM 10 11 64.4 99.66   -7 Clear
23:00 -3.3 -5.6 84 LegendMM 10 12 64.4 99.68   -8 LegendNANA

Notes on Data Quality.

Legend

  • E = Estimated
  • M = Missing
  • NA = Not Available*
  • [empty] = Indicates an unobserved value
Date modified: